Location: Newark
(9.1167°S, 159.8667°E)
Time: 10:50:32
(UTC+00:00)

Envisat - Pass Details

Date: 26 September 2019
Orbit: 764 x 766 km, 98.1° (Epoch: 22 October)

Event Time Altitude Azimuth Distance (km) Brightness Sun altitude
Rises 08:43:23 0° 188° (S) 3,240 6.4 -22.3°
Reaches altitude 10° 08:46:00 10° 200° (SSW) 2,310 5.8 -23.0°
Maximum altitude 08:50:13 27° 256° (WSW) 1,453 5.1 -24.0°
Drops below altitude 10° 08:54:25 10° 312° (NW) 2,296 6.0 -25.0°
Sets 08:57:02 0° 324° (NW) 3,217 6.6 -25.7°
